sat.trackr.live / text

‹ back to catalog

STARLINK-35959

NORAD 66827 · 2025-280G

PAYLOAD ACTIVE UNKNOWN

§ Identity

Operator
Country
US
Launch date
2025-12-02
Launch site
AFWTR
Launch vehicle
Mass (kg)
RCS (m²)

Purposes: comms

External: N2YO · Heavens-Above · Gunter

§ Orbital elements

Epoch: 2026-05-25T02:54:32.417856Z

Period
96.11 min
Inclination
70.0007°
Eccentricity
0.0004050
Mean motion
14.98335850 rev/d
Perigee alt
569.2 km
Apogee alt
574.9 km
Semi-major
6,950.2 km
B*
2.9884e-4
RAAN
141.7853°
Arg perigee
265.5615°
Mean anomaly
94.5082°
Rev number
2,752

§ Raw data

STARLINK-359591 66827U 25280G   26145.12120854  .00003475  00000+0  29884-3 0  99992 66827  70.0007 141.7853 0004050 265.5615  94.5082 14.98335850 27523

JSON: /api/v1/satellites/66827 · /tle

For live sub-satellite position, see the globe view (requires WebGL).

§ Visibility from observer

Set your observer location to see the next 7 days of passes ≥ 10°. The values pass through the URL so the page stays shareable.

No JS? Fill the form by hand. The geolocation button needs JavaScript.